Change the Weather History Date:

Saturday, October 12, 2013

  Actual Average Record
Temperature  
Mean Temperature 48 °F 50 °F  
Max Temperature 59 °F 65 °F 94 °F (1956)
Min Temperature 36 °F 36 °F 22 °F (1948)
Degree Days  
Heating Degree Days 17 15  
Month to date heating degree days 106 151  
Since 1 July heating degree days 169 337  
Cooling Degree Days 0 0  
Month to date cooling degree days 0 0  
Year to date cooling degree days 945 814  
Moisture  
Dew Point 31 °F    
Average Humidity 55    
Maximum Humidity 79    
Minimum Humidity 30    
Precipitation  
Precipitation 0.00 in 0.05 in 0.77 in (2008)
Month to date precipitation 1.93 0.61  
Year to date precipitation 12.92 15.48  
Sea Level Pressure  
Sea Level Pressure 30.14 in    
Wind  
Wind Speed 10 mph (NW)    
Max Wind Speed 23 mph    
Max Gust Speed 28 mph    
Visibility 10 miles    
Events      
T = Trace of Precipitation, MM = Missing Value Source: NWS Daily Summary

Daily Weather History Graph

Daily Weather History Graph

Search for Another Location

Airport or City:

Trip Planner

Search our weather history database for the weather conditions in past years. The results will help you decide how hot, cold, wet, or windy it might be!

Date:

Astronomy

Oct. 12, 2013 Rise Set
Actual Time 6:57 AM MDT 6:07 PM MDT
Civil Twilight 6:28 AM MDT 6:36 PM MDT
Nautical Twilight 5:55 AM MDT 7:09 PM MDT
Astronomical Twilight 5:21 AM MDT 7:42 PM MDT
Moon 2:30 PM MDT (10/12) No Moon Set
Length of Visible Light 12h 07m
Length of Day
11h 09m
First Quarter, 59% of the Moon is Illuminated
Oct 12
First Quarter
Oct 18
Full
Oct 26
Last Quarter
Nov 3
New
Nov 9
First Quarter

Hourly Weather History & Observations

Time (MDT) Temp. Windchill Dew Point Humidity Pressure Visibility Wind Dir Wind Speed Gust Speed Precip Events Conditions
12:55 AM 44.1 °F 36.8 °F 32.0 °F 63% 29.95 in 10.0 mi WNW 16.1 mph - N/A   Clear
1:55 AM 43.0 °F 36.0 °F 32.0 °F 65% 29.98 in 10.0 mi West 13.8 mph - N/A   Clear
2:55 AM 43.0 °F 36.8 °F 32.0 °F 65% 30.01 in 10.0 mi West 11.5 mph - N/A   Partly Cloudy
3:55 AM 43.0 °F 37.2 °F 33.1 °F 68% 30.01 in 10.0 mi West 10.4 mph - N/A   Partly Cloudy
4:55 AM 43.0 °F 36.0 °F 33.1 °F 68% 30.04 in 10.0 mi West 13.8 mph - N/A   Clear
5:55 AM 41.0 °F 33.9 °F 32.0 °F 70% 30.07 in 10.0 mi West 12.7 mph - N/A   Clear
6:55 AM 39.0 °F 32.8 °F 30.9 °F 73% 30.10 in 10.0 mi West 9.2 mph - N/A   Clear
7:55 AM 39.0 °F 33.4 °F 32.0 °F 76% 30.13 in 10.0 mi WSW 8.1 mph - N/A   Clear
8:55 AM 48.0 °F - 32.0 °F 54% 30.14 in 10.0 mi West 13.8 mph 20.7 mph N/A   Clear
9:55 AM 50.0 °F - 32.0 °F 50% 30.17 in 10.0 mi WNW 17.3 mph 27.6 mph N/A   Clear
10:55 AM 53.1 °F - 30.0 °F 41% 30.17 in 10.0 mi West 17.3 mph - N/A   Clear
11:55 AM 55.0 °F - 28.9 °F 37% 30.17 in 10.0 mi NW 15.0 mph - N/A   Clear
12:55 PM 57.0 °F - 28.9 °F 34% 30.16 in 10.0 mi NW 16.1 mph 23.0 mph N/A   Partly Cloudy
1:55 PM 57.0 °F - 28.9 °F 34% 30.15 in 10.0 mi NW 15.0 mph - N/A   Clear
2:55 PM 57.9 °F - 27.0 °F 31% 30.15 in 10.0 mi WNW 10.4 mph - N/A   Clear
3:55 PM 57.9 °F - 26.1 °F 30% 30.15 in 10.0 mi NNW 12.7 mph 17.3 mph N/A   Clear
4:55 PM 55.9 °F - 27.0 °F 33% 30.17 in 10.0 mi NNW 8.1 mph - N/A   Clear
5:55 PM 50.0 °F - 33.1 °F 52% 30.18 in 10.0 mi NNE 8.1 mph - N/A   Clear
6:55 PM 45.0 °F 43.5 °F 35.1 °F 68% 30.21 in 10.0 mi NE 3.5 mph - N/A   Clear
7:55 PM 44.1 °F 42.5 °F 32.0 °F 63% 30.23 in 10.0 mi ENE 3.5 mph - N/A   Clear
8:55 PM 39.9 °F 35.8 °F 33.1 °F 77% 30.24 in 10.0 mi East 5.8 mph - N/A   Clear
9:55 PM 41.0 °F - 30.9 °F 67% 30.25 in 10.0 mi Calm Calm - N/A   Clear
10:55 PM 39.0 °F 36.8 °F 30.9 °F 73% 30.26 in 10.0 mi East 3.5 mph - N/A   Scattered Clouds
11:55 PM 39.0 °F - 30.9 °F 73% 30.26 in 10.0 mi Calm Calm - N/A   Clear